Regional Weather Roundup
Issued by NWS Portland, ME

Current Version | Previous Version | Text Only | Print | Product List | Glossary Off
Versions: 1 2 3 4 5 6 7 8 9 10 11 12 13 14 15 16 17 18 19 20 21 22 23 24 25 26 27 28 29 30 31 32 33 34 35 36 37 38 39 40 41 42 43 44 45 46 47 48 49 50
000 ASUS41 KGYX 180110 RWRGYX WEATHER ROUNDUP FOR MAINE AND NEW HAMPSHIRE NATIONAL WEATHER SERVICE GRAY ME 900 PM EDT SUN JUN 17 2018 MEZ002-005-006-010-012-015-018-020-021-024-026-027-029-180200- MAINE CITY SKY/WX TMP DP RH WIND PRES REMARKS PORTLAND FAIR 55 53 93 E5 30.07F SANFORD FAIR 56 54 93 CALM 30.07F BAR HARBOR FAIR 55 48 77 S12 30.10F WISCASSET FAIR 55 52 89 SE5 30.09F ROCKLAND FAIR 52 50 93 E8 30.09F FRYEBURG FAIR 64 56 75 NE5 30.05R LEWISTONAUBURN FAIR 57 52 83 S5 30.07R AUGUSTA FAIR 58 51 78 S9 30.07S WATERVILLE FAIR 60 52 74 VRB3 30.05R BANGOR CLOUDY 58 49 72 S10 30.07S GREENVILLE N/A 60 51 72 SE9 30.02F MILLINOCKET FAIR 62 40 44 VRB7 30.04F HOULTON CLOUDY 60 46 59 S8 30.03R PRESQUE ISLE LGT RAIN 62 58 86 S9G18 29.99F FRENCHVILLE LGT RAIN 61 55 81 SE9 29.95F CARIBOU LGT RAIN 62 57 83 S9 29.98R $$ NHZ002-005-008-009-011-012-014-180200- NEW HAMPSHIRE CITY SKY/WX TMP DP RH WIND PRES REMARKS PORTSMOUTH CLOUDY 59 55 88 E3 30.05F ROCHESTER FAIR 62 55 77 S3 30.05F NASHUA FAIR 75 54 47 SE5 30.04F MANCHESTER MOCLDY 75 54 47 E5 30.02F CONCORD FAIR 71 56 58 SE7 30.03F LACONIA FAIR 73 51 46 SW10 30.03S PLYMOUTH FAIR 75 54 46 CALM 30.02R BERLIN FAIR 73 56 54 VRB5 30.02S WHITEFIELD FAIR 72 52 49 CALM 30.01S HAZE JAFFREY FAIR 73 56 54 CALM 30.07S KEENE FAIR 71 58 63 CALM 30.03S LEBANON FAIR 70 59 68 CALM 29.99F MT WASHINGTON PTCLDY 55 39 54 NW13G32 N/A $$ VTZ005-007-008-180200- VERMONT CITY SKY/WX TMP DP RH WIND PRES REMARKS ST JOHNSBURY N/A 74 59 59 MISG 29.97S MONTPELIER FAIR 73 46 38 SW5 30.04F BURLINGTON MOCLDY 77 48 35 S7 29.95F $$ MAZ007-012-024-CTZ003-RIZ002-NYZ038-NYZ072-180200- SOUTHERN NEW ENGLAND AND NY CITY SKY/WX TMP DP RH WIND PRES REMARKS BOSTON CLOUDY 65 58 78 VRB3 30.05F WORCESTER FAIR 71 56 58 SW7 30.07F NANTUCKET FAIR 60 58 92 S6 30.11S PROVIDENCE FAIR 69 59 70 SE6 30.07S HARTFORD MOCLDY 78 56 46 S9 30.03S ALBANY MOCLDY 79 57 46 S3 29.99F NEW YORK CITY MOCLDY 80 57 45 S7 30.04F $$ ANZ081-ANZ082-ANZ150-NHZ014-MEZ023>029-180200- COASTAL MARINE OBSERVATIONS STATION/POSITION TIME TEMP WIND PRES WAVE AIR SEA DIR/SP/G HT/PER (UTC) (F) (DEG/KT/KT) (MB) (FT/S) MOUNT DESERT ROC 0100 52 130/ 14/ 15 1019.7F MATINICUS ROCK 0000 52 100/ 12/ 13 1018.8F ISLE OF SHOALS 0000 59 60/ 7/ 9 1017.8F JEFFREYS LEDGE 0006 60 N/A 2/ 8 $$ .............KEY.............. WCI - WIND CHILL TC - TEMPERATURE IN CELSIUS VSB - VISIBILITY IN MILES HX - HEAT INDEX FAIR- INDICATES FEW OR NO CLOUDS BELOW 12,000 FT, WITH NO SIGNIFICANT WEATHER AND/OR OBSTRUCTIONS TO VISIBILITY.

USA.gov is the U.S. government's official web portal to all federal, state and local government web resources and services.